Regional Weather Roundup
Issued by NWS Columbia, SC

Home | Current Version | Previous Version | Text Only | Print | Product List | Glossary On
Versions: 1 2 3 4 5 6 7 8 9 10 11 12 13 14 15 16 17 18 19 20 21 22 23 24 25 26 27 28 29 30 31 32 33 34 35 36 37 38 39 40 41 42 43 44 45 46 47 48 49 50
000
ASUS42 KCAE 211210
RWRCAE
REGIONAL WEATHER ROUNDUP
NATIONAL WEATHER SERVICE COLUMBIA SC
700 AM EST SUN DEC 21 2014

NOTE: "FAIR" INDICATES FEW OR NO CLOUDS BELOW 12,000 FEET WITH NO
SIGNIFICANT WEATHER AND/OR OBSTRUCTIONS TO VISIBILITY.

NOT ALL STATIONS ARE QUALITY CONTROLLED BY THE NATIONAL
WEATHER SERVICE. USE DATA WITH CAUTION...ESPECIALLY
DEWPOINT OBSERVATIONS.

SCZ001>056-GAZ040-063>065-077-211300-
...UPSTATE SOUTH CAROLINA...

CITY           SKY/WX    TMP DP  RH WIND       PRES   REMARKS
ANDERSON       CLOUDY    43  40  89 E5        30.24R
6HR MIN TEMP:  43; 6HR MAX TEMP:  44;

LIBERTY        CLOUDY    41  40  97 MISG      30.23R FOG
6HR MIN TEMP:  28; 6HR MAX TEMP:  63;

SPARTANBURG    CLOUDY    43  41  93 NE6       30.24S
CLEMSON        CLOUDY    44  39  82 CALM      30.24R HAZE
6HR MIN TEMP:  44; 6HR MAX TEMP:  45;

GREENVILLE     CLOUDY    42  38  85 CALM      30.24R
6HR MIN TEMP:  42; 6HR MAX TEMP:  43;

GREENWOOD      CLOUDY    42  39  89 NE3       30.25S
6HR MIN TEMP:  42; 6HR MAX TEMP:  44;

GREER          CLOUDY    42  40  92 CALM      30.23R FOG
6HR MIN TEMP:  42; 6HR MAX TEMP:  43;

ROCK HILL      CLOUDY    41  36  82 CALM      30.26R
6HR MIN TEMP:  41; 6HR MAX TEMP:  42;

CHESTER        CLOUDY    43  37  81 NE3       30.26R
LAURENS        CLOUDY    41  41 100 NE3       30.25S


...CENTRAL SOUTH CAROLINA...

CITY           SKY/WX    TMP DP  RH WIND       PRES   REMARKS
COLUMBIA APT   CLOUDY    44  38  79 NE3       30.25R
6HR MIN TEMP:  44; 6HR MAX TEMP:  47;

COLUMBIA OWENS MOCLDY    43  37  79 CALM      30.27R
6HR MIN TEMP:  43; 6HR MAX TEMP:  46;

DARLINGTON     CLOUDY    37  32  81 N5        30.28R WCI  34
6HR MIN TEMP:  34; 6HR MAX TEMP:  37;

FLORENCE       CLOUDY    40  36  86 NE7       30.26R
6HR MIN TEMP:  37; 6HR MAX TEMP:  40;

MCENTIRE ANGB  MOCLDY    41  37  86 N3        30.26
6HR MIN TEMP:  41; 6HR MAX TEMP:  44;

ORANGEBURG     CLOUDY    43  39  86 NE6       30.24R
6HR MIN TEMP:  43; 6HR MAX TEMP:  45;

SUMTER SHAW    CLOUDY    41  36  84 NE6       30.24
6HR MIN TEMP:  41; 6HR MAX TEMP:  41;

NEWBERRY       CLOUDY    39 N/A N/A NE7       30.28R WCI  34
AIKEN          CLOUDY    43  43 100 N6        30.25S
BARNWELL         N/A     45  43  93 NE6       30.23R
CAMDEN         CLOUDY    37  36  93 N6        30.28R FOG     WCI  33
LANCASTER      RAIN      36  36 100 CALM      30.27R
WINNSBORO      CLOUDY    37  37 100 CALM      30.25R FOG


...EASTERN AND COASTAL SOUTH CAROLINA...

CITY           SKY/WX    TMP DP  RH WIND       PRES   REMARKS
MYRTLE BEACH   MOCLDY    43  36  75 N6        30.27R
N MYRTLE BCH   CLOUDY    41  35  79 NE13      30.22R
6HR MIN TEMP:  40; 6HR MAX TEMP:  41; 6HR PCP: TRACE;

CONWAY         CLOUDY    41  37  87 N3        30.25R
MARION         CLOUDY    41  34  75 NE6       30.27R
HARTSVILLE     CLOUDY    39  37  93 NE3       30.27R
FLORENCE       CLOUDY    40  36  86 NE7       30.26R
6HR MIN TEMP:  37; 6HR MAX TEMP:  40;

DARLINGTON     CLOUDY    37  32  81 N5        30.28R WCI  34
6HR MIN TEMP:  34; 6HR MAX TEMP:  37;

CHARLESTON APT LGT RAIN  45  43  93 N7        30.23R
6HR MIN TEMP:  45; 6HR MAX TEMP:  47; 6HR PCP: TRACE;

MOUNT PLEASANT CLOUDY    45  45 100 N6        30.22R FOG
WALTERBORO     DRIZZLE   45 N/A N/A N7        30.22F
BEAUFORT       CLOUDY    47  45  93 N9        30.20S
6HR MIN TEMP:  47; 6HR MAX TEMP:  50; 6HR PCP:  0.01;



...EASTERN GEORGIA...

CITY           SKY/WX    TMP DP  RH WIND       PRES   REMARKS
AUGUSTA BUSH F CLOUDY    46  41  82 NE6       30.24R
6HR MIN TEMP:  46; 6HR MAX TEMP:  47;

AUGUSTA DANIEL CLOUDY    47  43  86 NE5       30.24R
6HR MIN TEMP:  47; 6HR MAX TEMP:  48;

THOMSON        CLOUDY    47  47  97 CALM      30.27R
6HR MIN TEMP:  47; 6HR MAX TEMP:  49;

WASHINGTON     CLOUDY    45 N/A N/A CALM      30.22S FOG
CLAXTON        CLOUDY    48  48 100 NE6       30.20R
SYLVANIA       CLOUDY    46  46 100 NE5       30.22R
6HR MIN TEMP:  46; 6HR MAX TEMP:  49;

STATESBORO     RAIN      47  47 100 NE3       30.20R
6HR MIN TEMP:  46; 6HR MAX TEMP:  49;

SAVANNAH       CLOUDY    49  46  90 NE8       30.20R
6HR MIN TEMP:  49; 6HR MAX TEMP:  51; 6HR PCP: TRACE;



...SOUTHERN NORTH CAROLINA...

CITY           SKY/WX    TMP DP  RH WIND       PRES   REMARKS
CHARLOTTE      CLOUDY    42  34  73 CALM      30.26R
6HR MIN TEMP:  42; 6HR MAX TEMP:  42;

MONROE         CLOUDY    39  35  86 CALM      30.26R
6HR MIN TEMP:  38; 6HR MAX TEMP:  40;

WADESBORO      CLOUDY    37  35  95 CALM      30.28R FOG
6HR MIN TEMP:  31; 6HR MAX TEMP:  37;

ROCKINGHAM     CLOUDY    38  36  91 NE3       30.27R
6HR MIN TEMP:  34; 6HR MAX TEMP:  38;

RUTHERFORDTON  CLOUDY    40  39  98 CALM      30.26R FOG
6HR MIN TEMP:  40; 6HR MAX TEMP:  41;

ASHEVILLE      CLOUDY    39  37  92 S3        30.21R
6HR MIN TEMP:  38; 6HR MAX TEMP:  39;


$$



USA.gov is the U.S. government's official web portal to all federal, state and local government web resources and services.